Weather in Zakharkovo

Russia / Tomsk District     57°51′43″N   86°20′20″E
temp.,
°C
wind,
m/s
gust,
m/s
humid.,
%
clouds,
%
prec.,
mm/h
press.,
hPa
HPBL,
m
13 may, thu
thu1301:00+10nne225721 0.0 101311
04:00+8se22655 0.0 101320
07:00+10sw1260100 0.0 101394
10:00+17w11395 0.0 1012630
13:00+20wsw35295 0.0 10112574
16:00+20wnw562743 0.0 10112844
19:00+16nw464588 0.0 1012761
22:00+12nnw3875100 0.1 1013409
14 may, fri
fri1401:00+10nw257891 0.1 1013158
04:00+7nw310820 0.0 1014280
07:00+7nw498198 0.0 1016836
10:00+9nnw68485 0.0 10171367
13:00+11nw58300 0.0 10181724
16:00+12nw6827100 0.0 10181861
19:00+11wnw473392 0.0 10191665
22:00+7w3105197 0.0 1020275
15 may, sat
sat1501:00+7ssw41274100 0.1 1018466
04:00+9sw5165369 0.1 1015610
07:00+10wsw5146731 0.6 1015661
10:00+15w696086 0.1 1014850
13:00+19wsw585294 0.1 10131185
16:00+20wsw51155100 0.3 10111875
19:00+14wnw129673 2.6 101260
22:00+11nne3695100 0.4 1014248
16 may, sun
sun1601:00+8ene2398100 0.4 101470
04:00+7ne2496100 0.0 1014127
07:00+8ene3690100 0.0 1013239
10:00+9ene2484100 0.3 1014401
13:00+9ne358563 0.9 1014346
16:00+10ene347382 0.0 1014381
19:00+10ne1168100 0.1 1014335
22:00+7ese2480100 0.0 1013118
17 may, mon
mon1701:00+8s2693100 0.1 1011215
04:00+9ssw31497100 0.5 1006519
07:00+13w5148794 0.5 1004847
10:00+17wnw5107161 0.1 10031065
13:00+13nw389692 2.8 1004508
16:00+24wnw6124598 0.0 10052170
19:00+19nnw5872100 1.9 1004514
22:00+13nw2397100 4.6 100542